Weather in Raleigh

United States     35°51′00″N   78°40′40″W
temp.,
°C
wind,
m/s
gust,
m/s
humid.,
%
clouds,
%
prec.,
mm/h
press.,
hPa
HPBL,
m
28 may, sat
sat2823:00+20ssw311956 0.9 1010319
02:00+18w3109638 1.6 1010323
05:00+18nw27920 0.1 1010251
08:00+18nw37810 0.1 1012285
11:00+23nnw35470 0.0 1013996
14:00+27nw34409 0.0 10122033
17:00+27wnw34419 0.0 10122034
20:00+23nnw12600 0.0 101320
29 may, sun
sun2923:00+20nne11630 0.0 101511
02:00+19ne11670 0.0 101511
05:00+18ene11700 0.0 101611
08:00+20ene23650 0.0 1018187
11:00+26ese22470 0.0 1018975
14:00+30se22395 0.0 10172072
17:00+30sse323917 0.0 10162026
20:00+25ese245639 0.0 101778
30 may, mon
mon3023:00+23sse376847 0.0 1019197
02:00+21s38824 0.0 1019211
05:00+20ssw24904 0.0 1020111
08:00+23wsw12768 0.0 1021226
11:00+29sw015019 0.0 10211029
14:00+32se22375 0.0 10202527
17:00+32sse323523 0.0 10192378
20:00+27se37543 0.0 1019230
31 may, tue
tue3123:00+23s410700 0.0 1021368
02:00+21ssw27815 0.0 1021195
05:00+20wsw25895 0.0 1020134
08:00+23wnw23733 0.0 1021212
11:00+30w11470 0.0 1020950
14:00+33sse21350 0.0 10192348
17:00+33sse43370 0.0 10181942
20:00+28sse235411 0.0 101866
1 june, wed
wed123:00+24s39630 0.0 1019264
02:00+22ssw39720 0.0 1018266
05:00+21sw27780 0.0 1018193
08:00+23wsw24710 0.0 1018217
11:00+30wsw23450 0.0 1018917
14:00+34ssw22320 0.0 10152562
17:00+33s443423 0.0 10131621
20:00+29sse36510 0.0 1013184